Weather History for KLTS - April, 2013

Change the Weather History Date:

Friday, April 5, 2013

  Actual Average Record
Temperature  
Mean Temperature 48 °F -  
Max Temperature 66 °F 68 °F 86 °F (2006)
Min Temperature 30 °F 44 °F 30 °F (2013)
Degree Days  
Heating Degree Days 17    
Moisture  
Dew Point 40 °F    
Average Humidity 80    
Maximum Humidity 100    
Minimum Humidity 49    
Precipitation  
Precipitation 0.00 in - - ()
Sea Level Pressure  
Sea Level Pressure 30.12 in    
Wind  
Wind Speed 6 mph (SSE)    
Max Wind Speed 21 mph    
Max Gust Speed -    
Visibility 8 miles    
Events      
Averages and records for this station are not official NWS values.
T = Trace of Precipitation, MM = Missing Value Source: NWS Daily Summary

Daily Weather History Graph

Daily Weather History Graph

Search for Another Location

Airport or City:

Trip Planner

Search our weather history database for the weather conditions in past years. The results will help you decide how hot, cold, wet, or windy it might be!

Date:

Astronomy

Apr. 05, 2013 Rise Set
Actual Time 7:18 AM CDT 8:01 PM CDT
Civil Twilight 6:52 AM CDT 8:27 PM CDT
Nautical Twilight 6:22 AM CDT 8:57 PM CDT
Astronomical Twilight 5:51 AM CDT 9:28 PM CDT
Moon 4:15 AM CDT (4/5) 3:37 PM CDT (4/5)
Length of Visible Light 13h 34m
Length of Day
12h 43m
Waning Crescent, 23% of the Moon is Illuminated
Apr 5
Waning Crescent
Apr 10
New
Apr 18
First Quarter
Apr 25
Full
May 2
Last Quarter

Hourly Weather History & Observations

Time (CDT) Temp. Windchill Dew Point Humidity Pressure Visibility Wind Dir Wind Speed Gust Speed Precip Events Conditions
12:58 AM 37.8 °F - 37.4 °F 99% 30.23 in 10.0 mi West 1.2 mph - N/A   Clear
1:58 AM 33.4 °F - 33.3 °F 99% 30.23 in 10.0 mi WSW 2.3 mph - N/A   Clear
2:58 AM 31.6 °F 28.3 °F 31.3 °F 99% 30.22 in 10.0 mi WNW 3.5 mph - N/A   Clear
3:58 AM 32.9 °F 29.8 °F 32.5 °F 99% 30.21 in 10.0 mi WNW 3.5 mph - N/A   Clear
4:08 AM 33.8 °F 30.8 °F 33.8 °F 100% 30.19 in 3.0 mi NW 3.5 mph - N/A   Clear
4:31 AM 33.8 °F 28.6 °F 33.8 °F 100% 30.20 in 6.0 mi WNW 5.8 mph - N/A   Clear
4:58 AM 34.9 °F 30.8 °F 34.5 °F 99% 30.22 in 10.0 mi NW 4.6 mph - N/A   Clear
5:58 AM 32.9 °F - 32.7 °F 99% 30.22 in 6.0 mi Variable 2.3 mph - N/A   Clear
6:58 AM 30.0 °F - 29.8 °F 99% 30.22 in 10.0 mi East 2.3 mph - N/A   Clear
7:34 AM 32.0 °F - 32.0 °F 100% 30.21 in 2.5 mi SW 2.3 mph - N/A   Clear
7:58 AM 32.4 °F - 32.0 °F 99% 30.24 in 2.5 mi Calm Calm - N/A   Clear
8:58 AM 36.9 °F 34.3 °F 36.9 °F 100% 30.23 in 2.5 mi SE 3.5 mph - N/A   Clear
9:15 AM 39.2 °F - 39.2 °F 100% 30.21 in 3.0 mi SSE 2.3 mph - N/A   Clear
9:58 AM 43.9 °F 40.5 °F 43.2 °F 97% 30.24 in 7.0 mi SSW 5.8 mph - N/A   Clear
10:58 AM 51.1 °F - 43.0 °F 74% 30.23 in 10.0 mi South 8.1 mph - N/A   Clear
11:58 AM 54.1 °F - 45.9 °F 74% 30.20 in 10.0 mi SSE 10.4 mph - N/A   Clear
12:58 PM 58.5 °F - 44.8 °F 60% 30.16 in 10.0 mi SE 15.0 mph - N/A   Clear
1:58 PM 61.7 °F - 45.5 °F 55% 30.12 in 10.0 mi SE 12.7 mph - N/A   Partly Cloudy
2:58 PM 64.4 °F - 46.0 °F 51% 30.08 in 10.0 mi SSE 17.3 mph - N/A   Clear
3:58 PM 63.9 °F - 46.0 °F 52% 30.04 in 10.0 mi SSE 20.7 mph - N/A   Partly Cloudy
4:58 PM 65.5 °F - 47.1 °F 51% 29.98 in 10.0 mi SE 17.3 mph - N/A   Clear
5:58 PM 66.2 °F - 46.4 °F 49% 29.96 in 10.0 mi SE 20.7 mph - N/A   Clear
6:58 PM 63.9 °F - 46.8 °F 54% 29.96 in 10.0 mi SE 13.8 mph - N/A   Partly Cloudy
7:58 PM 60.8 °F - 47.5 °F 62% 29.95 in 10.0 mi SE 11.5 mph - N/A   Mostly Cloudy
8:58 PM 57.6 °F - 46.4 °F 66% 29.92 in 10.0 mi SE 13.8 mph - N/A   Mostly Cloudy
9:58 PM 56.1 °F - 47.3 °F 72% 29.93 in 10.0 mi SE 13.8 mph - N/A   Scattered Clouds
10:58 PM 56.3 °F - 46.9 °F 71% 29.90 in 10.0 mi SE 15.0 mph - N/A   Scattered Clouds
11:58 PM 55.8 °F - 47.5 °F 74% 29.88 in 10.0 mi SE 15.0 mph - N/A   Partly Cloudy